Vorticity
9 8 8 8 9 9 9 10 10 11 11 11 12 12 12 12 11 10 10 9 9 8 8 8 8 8 8 9 9 9 9 9 9 8 8 8 8 7 7 7 7 7 7 7 7 7 7 7 7 6 6 7 7 8 8 8 8 8 10 11 12 13 12 10 8 6 6 6 7 9 11 12 11 10 9 8 9 11 14 18 21 24 27 28 29 28
9 9 8 8 9 9 9 9 10 11 10 10 11 11 11 10 10 10 9 9 9 8 8 8 8 8 9 9 9 9 8 8 8 8 8 7 7 7 7 7 7 7 7 7 7 7 7 7 7 7 6 6 7 7 8 8 8 8 8 8 8 8 8 8 7 6 5 4 4 4 6 7 8 8 8 7 6 6 7 10 13 16 20 23 26 28
8 8 8 8 8 8 8 9 10 10 11 10 10 10 10 10 9 9 9 8 8 8 8 8 9 9 9 8 8 8 8 8 8 8 7 7 7 7 7 7 7 7 7 7 7 7 7 7 7 7 7 7 7 7 7 7 8 8 9 8 8 7 7 6 6 5 5 4 3 2 2 2 4 5 6 6 6 5 5 5 6 7 9 12 14 18
8 8 8 8 8 9 9 8 9 10 11 10 10 10 10 9 9 8 8 8 8 8 9 9 9 9 9 8 8 8 8 8 7 7 7 7 7 7 7 7 7 7 7 7 7 7 7 7 7 7 7 7 7 7 7 7 7 8 8 9 9 9 9 8 8 8 8 7 7 6 5 4 3 3 4 5 6 6 6 5 5 5 5 4 5 6
8 8 8 8 8 9 9 9 9 9 10 10 10 10 10 9 9 8 8 8 8 9 9 9 9 9 9 8 8 8 8 8 8 7 7 7 7 7 8 8 8 8 8 7 7 7 7 7 6 6 6 6 7 7 7 7 7 7 7 8 8 8 9 9 10 10 10 10 9 9 9 8 8 8 8 8 8 8 8 8 7 7 6 5 4 3
8 8 8 8 8 8 8 9 9 10 10 10 10 10 9 9 9 8 8 9 9 9 9 9 9 9 9 8 8 8 8 8 8 8 8 8 8 8 8 8 8 8 8 7 7 7 7 6 6 6 6 6 6 7 7 7 7 7 7 7 7 7 7 8 8 8 9 9 10 10 10 10 10 10 11 11 12 12 12 11 11 10 10 9 8 6
8 8 8 8 9 9 9 9 9 10 10 9 9 9 9 9 9 9 9 9 9 9 9 9 9 9 9 9 9 8 8 8 8 8 8 8 8 8 8 8 8 8 8 7 7 7 6 6 6 6 6 6 6 6 7 7 7 7 7 8 8 8 7 7 7 7 7 8 8 9 9 10 10 10 10 10 11 12 12 12 12 12 12 12 12 11
8 8 9 9 9 9 10 10 10 10 10 9 9 8 9 9 9 9 9 9 9 9 9 10 10 10 10 9 9 9 8 8 8 8 8 8 8 8 8 8 8 8 8 7 7 7 6 6 6 5 5 6 6 6 6 7 7 7 7 7 8 8 8 8 8 8 7 7 7 7 8 8 8 8 8 8 8 9 9 10 10 11 12 12 12 13
8 9 9 9 9 9 10 10 10 10 10 10 9 9 8 8 9 9 10 10 10 10 10 10 10 10 10 10 10 9 9 9 9 8 8 8 8 8 8 8 8 8 8 8 7 7 6 6 6 5 5 5 5 6 6 6 7 7 7 7 7 8 8 8 9 9 9 8 8 8 8 8 8 8 8 7 7 7 7 7 8 8 9 10 10 11
9 9 9 10 10 10 10 10 9 10 10 10 10 9 9 9 9 9 10 10 10 10 10 10 10 10 10 10 10 10 9 9 9 9 9 9 8 8 8 8 8 8 8 8 7 7 6 6 5 5 5 5 5 5 6 6 6 7 7 7 7 7 7 8 8 9 9 9 9 9 9 8 8 8 8 8 8 7 7 7 7 7 7 7 8 8
9 9 10 10 10 10 10 10 9 9 9 9 10 10 10 10 9 9 9 10 10 10 10 10 10 10 9 10 10 10 10 10 10 10 10 9 9 9 8 9 9 9 8 8 8 7 7 6 6 5 5 5 5 5 5 5 6 6 6 6 7 7 7 7 8 8 8 9 9 9 9 9 9 9 9 9 9 8 8 8 8 7 7 7 7 7
9 9 10 10 10 10 10 10 10 10 10 10 10 10 10 10 10 10 9 9 9 9 9 10 10 10 10 9 9 9 10 10 10 10 10 9 9 9 9 9 9 9 9 8 8 8 7 6 6 5 5 5 4 4 4 5 5 5 6 6 6 7 7 7 7 7 7 7 8 8 8 9 9 9 9 9 9 9 9 9 9 9 9 8 8 7
9 10 10 10 10 10 10 10 10 10 10 10 10 10 9 9 9 9 9 9 9 8 8 8 9 10 10 10 9 9 10 10 10 10 9 9 9 9 9 9 9 9 9 9 8 8 8 7 7 6 6 5 5 5 4 4 5 5 5 6 6 6 7 7 7 7 6 6 6 7 7 7 8 8 8 9 9 9 9 10 10 10 10 10 10 9
10 10 10 10 10 10 10 10 10 10 10 10 10 9 9 8 8 8 8 9 9 8 8 8 9 9 9 10 10 10 10 10 10 10 10 10 10 10 10 10 10 10 9 9 9 9 8 8 7 7 6 6 6 5 5 5 5 5 5 5 6 6 6 6 6 6 6 6 6 6 6 6 6 6 7 7 8 8 8 9 9 9 9 10 10 10
10 10 10 10 10 10 10 10 10 10 10 10 9 9 9 8 8 8 8 8 8 7 8 9 9 10 10 10 10 10 10 10 10 10 10 11 10 10 10 10 10 10 10 10 10 9 9 8 8 8 7 7 6 6 6 6 5 5 5 5 5 5 5 6 6 6 6 6 6 6 5 5 5 5 5 6 6 6 7 7 7 7 8 8 8 8
10 10 10 10 10 10 10 10 10 9 9 9 9 9 8 8 8 8 8 7 7 7 8 8 9 10 11 11 10 10 10 10 10 10 10 10 10 10 10 10 10 10 10 10 10 9 9 9 9 8 8 7 7 7 6 6 6 6 6 6 5 5 5 5 6 6 6 6 6 6 6 6 5 5 5 4 4 5 5 5 6 6 6 6 7 7
10 10 10 10 10 10 9 9 9 9 9 9 8 8 8 8 7 7 7 7 7 8 9 9 9 9 9 10 11 11 10 10 10 10 10 10 10 10 10 10 10 10 10 10 10 9 9 9 8 8 8 7 7 7 7 7 7 6 6 6 6 6 6 5 5 6 6 6 6 6 6 6 6 5 5 5 5 4 4 4 5 5 5 5 5 6
10 10 9 9 9 9 8 9 9 9 8 8 8 8 8 7 7 7 7 7 7 8 8 9 10 10 9 9 10 10 10 10 10 10 10 11 10 10 10 10 10 10 10 10 9 9 8 8 8 8 7 7 7 7 7 7 7 7 7 6 6 6 6 6 5 5 5 5 6 6 6 6 6 6 6 6 6 5 5 5 5 5 5 5 5 5
9 9 9 9 9 8 8 8 8 8 8 8 7 7 7 7 7 7 7 7 8 8 8 9 10 10 11 10 10 9 10 10 10 10 10 10 10 10 10 10 10 10 10 9 8 8 8 8 7 7 7 7 7 7 7 7 7 7 7 7 6 6 6 6 6 5 5 5 5 5 5 6 6 6 6 6 6 6 6 6 5 5 5 5 5 5
9 9 9 9 8 8 8 8 8 8 8 7 7 7 7 6 6 6 6 7 7 8 8 9 10 10 11 11 10 10 10 10 10 10 10 10 10 10 10 10 9 9 9 8 8 7 7 7 7 7 7 7 7 7 7 7 7 7 7 7 7 6 6 6 6 6 5 5 5 5 5 5 5 5 5 6 6 6 6 6 6 6 6 6 5 5
9 9 9 8 8 8 8 8 8 8 7 7 7 6 6 6 6 6 6 6 7 7 8 9 10 10 10 10 10 10 10 10 10 10 10 10 10 9 9 9 9 8 8 8 7 7 6 6 6 6 7 7 7 7 7 7 7 7 7 7 7 7 7 6 6 6 6 6 5 5 5 5 5 5 5 5 5 5 6 6 6 6 6 6 6 6
9 9 8 8 8 8 8 7 7 7 7 6 6 6 5 5 5 5 5 6 6 7 8 9 9 9 10 10 10 10 10 10 10 10 9 10 10 9 9 9 9 8 8 8 7 7 7 6 6 6 7 7 7 7 7 7 7 7 7 7 7 7 7 7 7 6 6 6 6 6 6 5 5 5 5 5 5 5 5 5 6 6 6 6 6 6
9 8 8 8 8 8 8 7 7 7 6 6 6 6 5 5 4 4 5 5 6 6 7 8 9 9 10 11 11 10 11 11 10 10 10 10 9 9 9 9 9 9 9 8 8 7 7 7 7 7 7 7 7 8 8 8 8 8 8 8 8 8 7 7 7 7 7 6 6 6 6 6 6 6 6 5 5 5 5 5 5 5 6 6 6 6
9 9 8 8 8 8 8 8 7 7 6 6 6 5 5 5 5 5 5 5 6 6 7 7 9 10 11 11 11 11 11 10 10 10 10 10 10 9 9 9 9 9 9 9 8 8 8 8 8 8 8 8 9 9 9 9 9 9 9 8 8 8 8 7 7 7 7 7 7 7 7 7 7 7 7 7 6 6 6 6 6 5 5 5 5 6
9 9 9 9 8 8 8 8 8 7 7 6 6 6 5 5 5 5 5 5 6 6 7 8 9 10 10 10 10 11 11 10 10 10 10 10 10 9 9 10 10 10 9 9 9 9 9 9 9 9 9 9 10 10 10 10 10 9 9 9 8 8 8 7 7 7 7 7 7 7 8 8 8 8 8 8 8 7 7 7 6 6 6 6 5 5
9 9 9 9 9 9 9 8 8 8 7 7 7 6 6 6 5 5 6 6 6 6 7 8 9 10 10 10 10 11 10 10 11 11 10 10 10 10 10 10 10 10 10 10 9 9 9 9 9 9 10 10 10 10 10 10 9 9 9 9 8 8 8 8 8 8 8 8 8 9 9 9 9 9 9 9 9 9 8 8 8 7 7 7 6 6
10 10 10 10 9 9 9 9 8 8 8 8 7 7 7 6 6 6 7 6 6 6 7 8 9 9 10 10 11 10 10 10 10 10 10 10 10 10 10 10 10 10 10 10 10 9 9 9 9 9 9 9 9 9 9 9 9 9 9 9 9 9 9 9 9 9 10 10 10 10 10 10 10 10 10 10 10 10 9 9 9 8 8 8 8 7
10 10 10 10 10 10 9 9 9 8 8 8 8 8 7 7 7 7 7 6 6 7 8 9 9 9 10 10 10 10 10 10 10 10 10 10 10 10 9 9 10 10 9 9 9 9 9 9 9 8 9 8 9 9 9 9 9 9 10 10 10 10 10 10 10 10 10 10 11 11 11 11 11 11 11 10 10 10 10 10 10 10 10 9 9 9
11 11 11 10 10 10 10 10 9 9 9 8 8 8 8 8 8 7 7 7 7 8 9 9 9 10 10 10 10 10 10 10 10 9 9 10 10 10 9 9 10 10 9 9 9 9 9 9 8 8 8 8 8 9 9 10 10 10 10 10 10 11 11 11 11 11 11 11 11 11 11 11 11 11 11 11 11 11 11 10 10 10 11 11 11 11
11 11 11 11 11 11 11 10 10 10 10 9 9 8 8 8 8 8 7 8 8 9 9 9 10 10 10 10 10 10 10 10 10 9 9 10 10 10 9 10 10 10 9 9 9 9 10 9 9 8 8 8 9 9 9 9 10 10 10 11 11 11 11 11 11 11 11 11 11 11 11 11 11 11 11 11 11 11 11 11 11 12 12 12 13 13
11 12 12 12 12 12 12 12 11 11 10 10 9 8 8 8 8 8 8 9 9 9 9 9 9 10 10 10 10 10 10 10 10 10 10 10 10 9 9 10 10 9 9 8 8 8 9 9 9 9 9 9 9 9 8 8 8 8 9 10 11 12 12 12 12 12 12 12 12 11 11 11 11 10 10 10 10 11 11 12 12 13 14 15 16 17
12 12 12 12 12 12 12 12 12 11 11 10 9 9 8 8 8 9 9 9 9 9 9 9 10 10 10 10 10 10 10 10 10 10 10 11 10 10 10 10 9 9 9 9 8 8 7 8 8 9 9 9 8 8 7 7 7 7 8 10 11 12 13 13 13 13 13 13 12 12 11 11 10 10 10 10 10 11 12 13 14 15 16 17 18 19
11 12 12 12 12 12 12 12 11 11 10 10 10 9 9 9 9 10 10 10 10 9 9 9 10 10 10 10 10 10 10 10 10 10 10 11 10 10 9 9 9 8 8 8 8 8 7 7 7 7 7 7 6 6 6 7 7 8 9 11 13 14 14 14 14 14 13 13 13 12 12 11 10 10 10 11 12 12 14 15 16 17 18 18 19 19
11 11 11 11 11 11 11 10 10 10 10 10 10 10 10 10 10 10 10 10 10 10 9 9 10 10 10 10 10 11 11 10 10 10 10 10 10 9 9 9 8 8 7 7 7 7 7 6 6 6 5 5 5 5 6 7 9 10 11 13 14 14 15 15 15 14 14 13 13 12 12 11 11 11 12 12 13 14 16 16 17 18 18 18 18 18
10 10 10 10 10 10 10 10 10 10 10 10 10 10 10 10 10 10 10 10 10 10 10 10 10 10 10 10 10 10 10 10 10 10 10 10 9 8 8 8 8 7 7 7 6 6 6 6 5 4 4 4 5 6 7 8 10 11 12 13 14 14 15 15 15 14 13 13 12 12 11 11 12 12 13 14 15 16 17 18 18 18 18 17 16 15
10 10 10 10 10 10 10 10 10 10 10 10 10 10 10 10 10 10 10 10 10 10 10 10 11 11 10 10 10 10 10 9 9 9 9 9 8 8 8 7 7 7 7 7 6 6 6 5 5 4 4 4 6 7 8 9 10 12 12 13 13 14 15 15 15 14 14 13 12 12 12 12 13 14 15 16 17 17 18 18 18 17 16 15 14 13
10 10 10 10 10 10 10 10 10 10 10 10 10 11 11 11 11 11 10 10 11 11 11 10 10 10 10 10 10 10 9 9 8 8 8 8 8 8 8 7 7 7 7 7 6 6 6 5 5 5 5 5 6 8 9 10 10 12 12 12 13 13 14 15 15 15 14 14 13 12 12 13 14 15 16 17 18 18 18 17 16 15 14 13 13 13
10 10 10 10 10 10 10 10 10 10 11 11 11 11 12 12 12 12 11 11 11 11 10 10 10 10 10 10 10 9 9 8 8 8 8 8 8 8 8 8 8 8 8 8 7 7 6 6 6 6 6 6 8 9 10 10 10 11 12 12 12 13 14 14 15 15 15 14 14 14 14 15 16 17 18 18 18 17 16 14 13 13 12 12 13 13
10 10 10 10 10 10 11 11 11 11 12 12 12 13 13 13 13 12 12 11 11 10 10 10 9 9 9 9 8 8 8 7 7 7 7 7 7 8 8 8 8 8 8 8 8 8 7 7 6 7 7 8 9 9 10 10 11 11 10 12 13 15 15 15 15 16 16 15 15 16 16 17 17 18 18 17 16 14 13 12 12 12 12 13 14 14
10 10 11 11 11 12 12 12 13 13 13 13 14 13 13 13 13 12 12 11 10 10 9 9 9 8 8 8 7 7 7 7 7 7 7 7 7 8 8 9 9 9 9 9 8 8 8 7 7 7 8 8 9 10 10 11 11 11 11 12 14 15 15 16 16 16 16 17 17 17 18 18 18 17 16 15 13 12 12 12 12 13 13 14 14 14
11 11 12 12 13 13 13 13 13 13 13 13 13 13 13 12 11 10 10 9 9 9 8 8 8 8 7 7 7 6 6 6 6 7 7 7 8 8 9 9 9 9 9 8 8 8 7 7 8 8 8 9 10 10 11 11 11 11 12 14 14 14 14 16 16 17 17 17 18 18 18 18 17 16 14 13 12 11 11 12 13 14 14 14 14 14
12 12 13 13 13 13 13 13 13 12 12 11 11 10 10 9 8 8 7 7 8 8 7 7 7 7 7 7 7 7 7 7 7 7 8 8 8 9 9 9 9 9 8 8 8 7 7 7 8 8 9 9 10 11 12 12 12 13 14 15 15 16 17 18 17 17 17 17 18 18 18 17 16 14 12 11 11 11 13 13 14 15 15 14 14 15
13 13 13 13 12 12 11 11 10 10 9 9 8 8 7 7 6 6 6 7 7 7 7 7 7 7 7 7 7 7 8 8 8 8 9 9 9 9 9 9 9 8 8 7 7 7 7 7 8 8 9 10 10 11 12 12 13 14 16 16 16 16 17 17 17 17 17 17 17 17 17 16 14 12 11 11 11 13 14 15 15 15 14 14 14 15
12 12 11 11 10 10 9 8 8 8 7 7 7 7 7 7 6 6 7 7 7 7 7 7 7 7 7 8 8 8 8 9 10 10 10 10 10 10 9 9 8 8 7 7 7 7 7 8 9 9 10 10 11 12 13 14 14 15 16 16 17 17 17 15 15 16 17 17 17 16 16 14 13 11 10 11 13 14 15 16 15 15 14 15 16 17
10 10 9 9 8 7 7 7 7 7 7 7 8 8 8 8 8 8 8 8 8 8 8 8 8 8 9 9 9 9 9 9 10 10 10 10 10 10 9 8 8 7 7 7 7 7 7 8 9 10 10 11 12 13 14 15 16 16 16 16 17 17 17 16 16 17 17 16 16 15 14 13 11 10 11 12 14 15 16 15 14 14 14 16 17 19
9 8 8 7 7 7 7 7 7 8 8 8 9 9 9 10 10 10 9 9 9 9 9 8 8 8 9 9 9 9 10 10 10 10 10 10 10 9 9 8 7 7 7 7 7 7 8 8 9 10 11 13 15 16 17 16 16 17 16 16 16 16 16 17 17 17 17 16 15 14 13 11 10 10 12 14 15 16 15 14 14 14 15 17 19 21
8 7 7 7 7 7 7 7 8 8 8 9 9 10 10 10 10 10 10 10 10 10 10 10 10 10 10 9 9 9 9 10 9 9 9 9 8 8 8 7 7 7 7 7 7 8 9 10 10 11 12 14 16 17 18 18 18 18 16 16 16 16 16 16 16 16 16 15 14 13 12 10 10 11 13 15 16 15 15 14 14 15 17 19 20 21
7 7 7 6 6 6 7 7 7 7 8 8 9 10 10 10 10 10 10 10 10 10 10 10 10 10 10 10 10 9 9 9 8 8 8 8 7 7 7 7 7 7 8 8 9 10 11 12 13 14 15 16 16 17 17 18 18 18 16 16 16 16 16 16 16 15 15 13 12 11 10 10 11 13 15 15 16 15 14 14 15 16 18 20 20 20
6 6 6 5 5 5 5 5 6 7 8 9 10 11 12 11 11 11 10 10 10 10 10 10 10 10 10 9 9 9 9 9 8 8 7 7 7 7 7 7 7 8 9 10 11 12 13 15 16 17 18 18 18 18 18 18 17 17 16 16 16 16 16 16 15 14 13 12 10 10 10 10 12 14 16 16 15 15 14 15 16 18 19 20 19 19
5 5 4 3 3 3 3 4 5 7 9 11 12 13 13 12 12 11 11 10 10 10 10 10 9 9 9 8 8 8 8 8 8 8 8 7 7 7 8 8 8 9 10 12 13 14 15 17 19 20 21 21 20 19 18 17 16 16 16 16 16 16 15 15 14 13 11 10 10 10 10 12 14 15 16 16 15 15 15 16 17 18 19 19 18 17
5 4 3 2 2 2 3 4 6 8 11 13 14 14 14 13 12 12 11 10 10 10 9 9 8 8 8 7 7 8 8 8 8 8 8 8 8 9 9 9 10 11 12 13 14 16 17 18 20 21 22 22 21 19 18 17 16 16 16 16 15 15 14 14 12 11 10 9 9 10 11 13 15 16 16 15 15 15 15 17 18 19 18 17 16 16
Height
5707 5706 5704 5703 5702 5701 5700 5699 5698 5697 5696 5695 5694 5693 5692 5691 5690 5689 5689 5688 5687 5686 5685 5684 5683 5683 5682 5681 5680 5679 5678 5677 5676 5675 5674 5673 5672 5671 5670 5669 5668 5667 5666 5665 5664 5662 5661 5660 5659 5657 5656 5654 5653 5652 5650 5649 5649 5648 5647 5645 5645 5644 5643 5643 5642 5642 5641 5641 5641 5640 5640 5639 5639 5639 5640 5640 5640 5640 5641 5641 5641 5642 5642 5643 5643 5644
5704 5703 5702 5701 5700 5699 5698 5697 5696 5695 5694 5693 5692 5691 5690 5689 5688 5687 5686 5686 5685 5684 5683 5682 5682 5681 5680 5679 5678 5677 5676 5676 5675 5674 5673 5672 5670 5669 5668 5667 5666 5665 5664 5663 5662 5661 5660 5659 5658 5656 5655 5654 5653 5651 5650 5649 5648 5647 5646 5645 5645 5644 5644 5643 5642 5642 5641 5641 5641 5640 5640 5640 5640 5640 5639 5639 5640 5640 5640 5640 5640 5641 5641 5641 5642 5642
5702 5701 5700 5699 5698 5697 5696 5695 5694 5693 5692 5690 5689 5689 5688 5687 5686 5685 5684 5684 5683 5682 5681 5681 5680 5679 5678 5677 5676 5675 5675 5674 5673 5672 5671 5670 5669 5668 5666 5665 5664 5663 5662 5661 5660 5659 5658 5657 5656 5655 5654 5653 5652 5651 5650 5649 5648 5647 5646 5645 5644 5644 5643 5643 5642 5642 5641 5641 5640 5640 5640 5640 5640 5639 5639 5639 5639 5639 5639 5639 5639 5640 5640 5640 5640 5641
5700 5699 5698 5697 5696 5695 5694 5693 5691 5690 5689 5689 5687 5686 5685 5685 5684 5683 5682 5682 5681 5680 5679 5679 5678 5677 5676 5675 5674 5673 5673 5672 5670 5669 5669 5667 5666 5665 5664 5663 5662 5661 5660 5659 5658 5657 5656 5655 5654 5654 5653 5652 5651 5650 5649 5648 5647 5646 5646 5645 5644 5644 5643 5642 5642 5641 5641 5640 5640 5639 5639 5639 5639 5639 5639 5639 5639 5639 5639 5639 5639 5639 5639 5639 5639 5640
5698 5697 5696 5694 5694 5693 5691 5690 5689 5688 5687 5686 5685 5684 5683 5683 5682 5681 5680 5679 5679 5678 5677 5676 5676 5675 5674 5673 5672 5671 5670 5669 5668 5667 5666 5665 5664 5663 5662 5661 5660 5659 5658 5657 5656 5655 5654 5654 5653 5652 5651 5650 5650 5649 5648 5647 5647 5646 5645 5644 5644 5643 5643 5642 5641 5641 5640 5640 5639 5639 5639 5638 5638 5638 5638 5638 5639 5639 5638 5638 5638 5638 5638 5639 5639 5639
5696 5695 5693 5692 5691 5690 5689 5688 5687 5686 5685 5684 5683 5682 5681 5680 5679 5679 5678 5677 5676 5675 5675 5674 5673 5672 5671 5670 5669 5669 5668 5667 5666 5665 5664 5663 5662 5661 5660 5659 5658 5657 5657 5656 5655 5654 5653 5652 5651 5650 5650 5649 5649 5648 5647 5646 5645 5645 5644 5643 5643 5642 5641 5641 5640 5640 5639 5639 5639 5638 5638 5637 5637 5637 5637 5637 5637 5637 5637 5637 5637 5637 5637 5637 5638 5638
5693 5692 5691 5690 5689 5688 5687 5685 5684 5684 5683 5682 5681 5680 5679 5678 5678 5677 5676 5675 5674 5673 5672 5672 5671 5670 5669 5668 5667 5666 5665 5664 5663 5663 5662 5661 5660 5659 5658 5657 5657 5656 5655 5654 5653 5652 5651 5650 5649 5649 5648 5647 5647 5646 5646 5645 5644 5644 5643 5642 5641 5641 5640 5639 5639 5639 5638 5638 5637 5637 5637 5636 5636 5635 5635 5635 5635 5635 5635 5635 5635 5635 5635 5636 5636 5636
5690 5690 5689 5688 5686 5685 5684 5683 5682 5681 5680 5679 5679 5678 5677 5676 5675 5674 5674 5673 5672 5671 5670 5669 5669 5668 5667 5666 5665 5664 5663 5662 5661 5660 5659 5659 5658 5657 5656 5655 5655 5654 5653 5652 5651 5650 5649 5649 5648 5647 5646 5646 5645 5644 5644 5643 5643 5642 5641 5640 5640 5639 5639 5638 5637 5637 5636 5636 5636 5635 5635 5635 5634 5634 5634 5634 5633 5633 5633 5633 5633 5634 5634 5634 5634 5634
5688 5687 5686 5685 5684 5683 5682 5681 5680 5679 5678 5677 5676 5676 5675 5674 5673 5672 5672 5670 5669 5669 5668 5667 5666 5665 5664 5664 5662 5661 5660 5660 5659 5658 5657 5656 5656 5655 5654 5654 5653 5652 5651 5650 5649 5649 5648 5647 5646 5645 5644 5644 5643 5643 5642 5641 5641 5640 5639 5639 5638 5638 5637 5636 5636 5635 5635 5634 5634 5634 5633 5633 5633 5633 5632 5632 5632 5632 5632 5631 5631 5632 5632 5632 5632 5632
5685 5684 5684 5683 5682 5681 5680 5679 5678 5677 5676 5675 5674 5673 5673 5672 5671 5670 5669 5669 5667 5666 5665 5664 5664 5663 5662 5661 5660 5659 5658 5657 5657 5656 5655 5654 5654 5653 5652 5651 5650 5650 5649 5648 5648 5647 5646 5645 5644 5644 5643 5642 5641 5641 5640 5639 5639 5639 5638 5637 5637 5636 5635 5635 5634 5634 5633 5633 5632 5632 5631 5631 5631 5631 5631 5630 5630 5630 5630 5630 5630 5630 5630 5630 5630 5630
5683 5682 5681 5680 5679 5678 5677 5676 5675 5674 5673 5672 5672 5671 5670 5669 5669 5668 5667 5666 5665 5664 5663 5662 5661 5660 5659 5659 5658 5657 5656 5655 5654 5654 5653 5652 5651 5650 5650 5649 5648 5648 5647 5646 5645 5644 5644 5643 5642 5641 5641 5640 5639 5639 5638 5638 5637 5636 5636 5635 5635 5634 5634 5633 5633 5632 5631 5631 5630 5630 5629 5629 5629 5629 5629 5629 5629 5628 5628 5628 5628 5628 5628 5628 5628 5628
5680 5679 5678 5677 5677 5676 5675 5674 5673 5672 5671 5670 5669 5668 5668 5667 5666 5665 5664 5664 5663 5662 5661 5660 5659 5658 5657 5656 5655 5654 5654 5653 5652 5651 5650 5649 5649 5648 5647 5647 5646 5645 5644 5644 5643 5642 5641 5640 5640 5639 5638 5638 5637 5636 5636 5635 5634 5634 5634 5633 5633 5633 5632 5631 5631 5630 5629 5629 5628 5628 5628 5627 5627 5627 5626 5626 5626 5626 5626 5626 5626 5626 5626 5626 5626 5626
5678 5677 5676 5675 5674 5673 5672 5671 5670 5669 5669 5668 5667 5666 5665 5664 5664 5663 5662 5661 5661 5660 5659 5658 5656 5655 5654 5654 5653 5652 5651 5650 5649 5649 5648 5647 5646 5645 5644 5644 5643 5643 5642 5641 5640 5639 5639 5638 5637 5636 5636 5635 5634 5634 5633 5633 5632 5632 5631 5631 5630 5630 5630 5629 5629 5628 5627 5627 5626 5626 5625 5625 5624 5624 5624 5624 5624 5624 5624 5624 5624 5624 5624 5624 5624 5624
5675 5674 5673 5672 5671 5670 5669 5669 5668 5667 5666 5665 5664 5664 5663 5662 5661 5660 5660 5659 5658 5657 5656 5655 5654 5653 5652 5651 5650 5649 5648 5648 5647 5646 5645 5644 5643 5642 5642 5641 5640 5640 5639 5638 5638 5637 5636 5635 5634 5634 5633 5632 5632 5631 5630 5630 5629 5629 5629 5628 5628 5627 5627 5627 5626 5626 5625 5624 5624 5624 5623 5623 5622 5622 5622 5621 5621 5621 5621 5621 5621 5621 5621 5621 5621 5621
5672 5671 5670 5669 5669 5668 5667 5666 5665 5664 5664 5663 5662 5661 5660 5659 5659 5658 5657 5656 5655 5654 5654 5653 5652 5651 5650 5649 5647 5646 5645 5645 5644 5643 5642 5641 5640 5640 5639 5638 5637 5637 5636 5635 5635 5634 5633 5633 5632 5631 5630 5629 5629 5628 5628 5627 5627 5626 5626 5625 5625 5624 5624 5624 5623 5623 5622 5622 5621 5621 5620 5620 5619 5619 5619 5619 5618 5618 5618 5618 5618 5618 5618 5617 5617 5618
5670 5669 5668 5667 5666 5666 5665 5664 5663 5662 5661 5660 5660 5659 5658 5657 5657 5656 5655 5654 5653 5652 5651 5650 5649 5649 5648 5646 5645 5644 5643 5642 5641 5641 5640 5639 5638 5637 5636 5635 5634 5634 5634 5633 5632 5631 5630 5630 5629 5628 5627 5627 5626 5625 5625 5624 5624 5623 5623 5622 5622 5621 5621 5620 5620 5619 5619 5619 5618 5618 5618 5617 5617 5616 5616 5615 5615 5615 5615 5614 5614 5614 5614 5614 5614 5614
5667 5666 5665 5665 5664 5663 5663 5662 5661 5660 5659 5658 5657 5656 5656 5655 5654 5653 5652 5651 5650 5649 5648 5647 5646 5645 5645 5644 5643 5641 5640 5639 5639 5638 5637 5636 5635 5634 5634 5633 5632 5631 5631 5630 5629 5629 5628 5627 5626 5625 5624 5624 5623 5623 5622 5622 5621 5620 5620 5619 5619 5618 5617 5617 5616 5616 5615 5615 5615 5614 5614 5614 5614 5613 5613 5612 5612 5612 5611 5611 5611 5611 5611 5611 5610 5610
5665 5664 5663 5662 5661 5661 5660 5659 5658 5657 5656 5655 5654 5654 5653 5652 5651 5650 5649 5649 5648 5646 5645 5644 5644 5643 5642 5641 5640 5639 5638 5637 5636 5635 5634 5634 5633 5632 5631 5630 5629 5629 5628 5627 5626 5626 5625 5624 5623 5623 5622 5621 5620 5620 5619 5619 5618 5618 5617 5616 5616 5615 5614 5614 5613 5613 5612 5612 5611 5611 5611 5610 5610 5609 5609 5609 5609 5608 5608 5608 5607 5607 5607 5607 5607 5607
5662 5661 5661 5660 5659 5658 5657 5657 5656 5654 5654 5653 5652 5651 5650 5649 5649 5648 5647 5646 5645 5644 5643 5641 5640 5640 5639 5638 5637 5636 5635 5634 5633 5632 5632 5631 5630 5629 5628 5627 5626 5626 5625 5624 5624 5623 5622 5621 5620 5620 5619 5618 5618 5617 5616 5616 5615 5615 5614 5614 5613 5612 5612 5611 5610 5610 5609 5609 5608 5608 5607 5607 5606 5606 5606 5605 5605 5604 5604 5604 5604 5603 5603 5603 5603 5603
5659 5659 5658 5657 5656 5655 5655 5654 5653 5652 5651 5650 5649 5649 5648 5647 5646 5645 5644 5643 5642 5641 5640 5639 5638 5637 5636 5635 5634 5633 5632 5631 5630 5629 5629 5628 5627 5626 5625 5624 5624 5623 5622 5622 5621 5620 5619 5618 5617 5617 5616 5615 5614 5614 5614 5613 5612 5612 5611 5610 5610 5609 5609 5608 5607 5606 5606 5605 5604 5604 5604 5603 5602 5602 5602 5601 5601 5600 5600 5600 5600 5599 5599 5599 5599 5599
5657 5656 5655 5654 5654 5653 5652 5651 5650 5649 5648 5647 5646 5646 5645 5644 5643 5642 5641 5640 5639 5638 5637 5636 5635 5634 5633 5632 5631 5630 5629 5628 5627 5626 5625 5624 5624 5623 5622 5621 5621 5620 5619 5619 5618 5617 5616 5615 5614 5614 5613 5612 5611 5611 5610 5610 5609 5608 5608 5607 5606 5606 5605 5604 5604 5603 5602 5602 5601 5600 5600 5599 5599 5598 5598 5597 5597 5596 5596 5595 5595 5595 5595 5594 5594 5594
5654 5653 5652 5651 5650 5650 5649 5648 5647 5646 5645 5644 5644 5643 5642 5641 5640 5639 5639 5638 5636 5635 5634 5633 5632 5631 5630 5629 5628 5627 5626 5625 5624 5623 5622 5621 5620 5620 5619 5618 5617 5617 5616 5615 5615 5614 5613 5612 5611 5610 5609 5609 5608 5608 5607 5606 5606 5605 5604 5604 5603 5602 5602 5601 5600 5599 5599 5598 5597 5597 5596 5595 5594 5594 5594 5593 5592 5592 5591 5591 5590 5590 5590 5589 5589 5589
5651 5650 5649 5648 5647 5646 5645 5645 5644 5643 5642 5641 5640 5640 5639 5638 5637 5636 5635 5634 5633 5632 5631 5630 5629 5628 5627 5625 5624 5624 5623 5622 5621 5620 5619 5618 5617 5616 5616 5615 5614 5613 5613 5612 5611 5610 5609 5609 5608 5607 5606 5605 5605 5604 5604 5603 5602 5601 5601 5600 5599 5599 5598 5597 5596 5596 5595 5594 5594 5593 5592 5591 5590 5590 5589 5589 5588 5587 5587 5586 5586 5585 5585 5584 5584 5584
5648 5647 5646 5645 5644 5643 5642 5642 5641 5640 5639 5638 5637 5636 5635 5635 5634 5633 5632 5631 5630 5629 5628 5626 5625 5624 5624 5623 5621 5620 5619 5619 5618 5617 5616 5614 5614 5613 5613 5612 5611 5610 5609 5609 5608 5607 5606 5605 5604 5604 5603 5602 5601 5600 5600 5599 5598 5598 5597 5596 5595 5594 5594 5593 5592 5592 5591 5590 5589 5589 5588 5587 5586 5585 5585 5584 5583 5583 5582 5581 5581 5580 5580 5579 5579 5578
5644 5644 5643 5642 5641 5640 5639 5639 5638 5637 5636 5635 5634 5633 5632 5631 5630 5629 5629 5628 5627 5625 5624 5624 5623 5621 5620 5620 5619 5617 5616 5615 5614 5614 5613 5612 5611 5610 5609 5609 5608 5607 5606 5605 5604 5604 5603 5602 5601 5600 5599 5598 5597 5597 5596 5595 5594 5594 5593 5592 5591 5590 5589 5589 5588 5587 5586 5586 5585 5584 5583 5583 5582 5581 5580 5579 5579 5578 5577 5577 5576 5575 5575 5574 5574 5573
5641 5640 5639 5639 5638 5637 5636 5635 5634 5634 5633 5632 5631 5630 5629 5628 5627 5626 5626 5625 5624 5623 5622 5620 5619 5618 5617 5616 5615 5614 5613 5612 5611 5610 5609 5609 5607 5607 5606 5605 5604 5603 5602 5601 5601 5600 5599 5598 5597 5597 5596 5595 5594 5593 5592 5591 5590 5589 5589 5588 5587 5586 5585 5584 5584 5583 5582 5581 5580 5579 5579 5578 5577 5576 5575 5575 5574 5573 5572 5572 5571 5570 5569 5569 5568 5568
5638 5637 5636 5635 5635 5634 5633 5632 5631 5630 5629 5629 5628 5627 5626 5625 5624 5623 5623 5622 5621 5620 5618 5617 5616 5615 5614 5613 5612 5611 5610 5609 5607 5606 5606 5605 5604 5603 5602 5602 5601 5600 5599 5598 5597 5596 5595 5594 5594 5593 5592 5591 5590 5589 5588 5587 5586 5585 5584 5584 5583 5582 5581 5580 5579 5578 5577 5577 5576 5575 5574 5573 5572 5571 5571 5570 5569 5568 5567 5567 5566 5565 5564 5564 5563 5562
5635 5634 5634 5632 5631 5631 5630 5629 5628 5627 5626 5625 5624 5624 5623 5622 5621 5620 5619 5619 5618 5616 5615 5614 5613 5611 5610 5609 5608 5608 5607 5605 5604 5603 5602 5601 5600 5599 5599 5598 5597 5596 5595 5594 5593 5592 5592 5591 5590 5589 5588 5587 5586 5585 5584 5583 5582 5581 5580 5579 5578 5577 5576 5575 5574 5574 5573 5572 5571 5570 5569 5568 5567 5566 5566 5565 5564 5563 5562 5561 5561 5560 5559 5558 5558 5557
5632 5631 5630 5629 5629 5627 5626 5626 5625 5624 5623 5622 5621 5620 5619 5619 5617 5616 5615 5614 5614 5613 5611 5610 5609 5608 5607 5606 5605 5604 5603 5602 5601 5599 5599 5598 5596 5596 5595 5594 5593 5592 5592 5590 5589 5588 5588 5587 5586 5585 5584 5584 5583 5582 5580 5579 5578 5577 5576 5575 5574 5573 5572 5571 5570 5569 5568 5567 5566 5565 5564 5563 5562 5561 5560 5559 5559 5558 5557 5556 5555 5554 5554 5553 5552 5551
5629 5628 5627 5626 5625 5624 5623 5622 5621 5621 5620 5619 5618 5617 5616 5615 5614 5613 5612 5611 5610 5609 5608 5607 5605 5604 5604 5602 5601 5600 5599 5598 5597 5596 5595 5594 5593 5592 5591 5590 5589 5589 5588 5586 5585 5584 5584 5583 5582 5581 5580 5579 5579 5578 5577 5575 5574 5573 5572 5570 5569 5568 5567 5566 5565 5564 5563 5562 5561 5560 5559 5558 5557 5556 5555 5554 5554 5553 5552 5551 5550 5549 5548 5547 5546 5545
5626 5625 5624 5623 5622 5621 5620 5619 5618 5617 5616 5615 5615 5614 5613 5612 5611 5609 5608 5607 5606 5605 5604 5603 5602 5601 5600 5599 5598 5596 5595 5595 5594 5592 5591 5590 5589 5589 5588 5587 5585 5584 5584 5583 5581 5580 5579 5578 5578 5577 5576 5575 5574 5573 5573 5572 5570 5569 5568 5566 5564 5563 5562 5561 5560 5559 5558 5557 5556 5555 5554 5553 5552 5551 5550 5549 5548 5547 5546 5545 5544 5544 5543 5542 5541 5540
5623 5621 5620 5619 5618 5617 5616 5615 5614 5614 5613 5612 5611 5610 5609 5608 5607 5606 5605 5604 5603 5602 5601 5600 5599 5598 5597 5595 5594 5593 5592 5591 5590 5589 5588 5586 5585 5584 5584 5583 5582 5581 5580 5579 5578 5576 5575 5574 5573 5573 5572 5570 5569 5569 5568 5567 5566 5565 5564 5562 5560 5558 5557 5556 5554 5554 5553 5552 5551 5550 5549 5548 5547 5546 5545 5544 5543 5542 5541 5540 5539 5538 5537 5536 5535 5534
5620 5619 5617 5616 5615 5614 5613 5612 5611 5610 5609 5609 5608 5607 5606 5605 5604 5603 5601 5600 5599 5598 5597 5596 5595 5594 5593 5592 5591 5590 5589 5588 5586 5585 5584 5583 5582 5581 5580 5579 5578 5577 5576 5575 5574 5573 5572 5570 5569 5568 5567 5566 5565 5564 5563 5562 5561 5560 5559 5558 5556 5554 5552 5551 5549 5548 5547 5546 5545 5544 5544 5542 5541 5540 5539 5538 5537 5536 5535 5534 5533 5532 5531 5530 5529 5529
5617 5616 5614 5613 5612 5611 5610 5609 5608 5607 5606 5605 5604 5603 5602 5601 5600 5599 5598 5597 5596 5594 5594 5593 5591 5590 5589 5588 5587 5586 5585 5584 5583 5581 5580 5579 5578 5577 5576 5575 5574 5573 5572 5571 5570 5569 5568 5566 5565 5564 5562 5561 5560 5559 5558 5557 5556 5555 5554 5553 5551 5549 5548 5546 5545 5543 5542 5541 5540 5539 5538 5537 5536 5534 5534 5533 5531 5530 5529 5529 5528 5527 5526 5525 5524 5523
5614 5613 5612 5610 5609 5608 5607 5606 5605 5604 5603 5602 5601 5600 5599 5598 5597 5596 5594 5593 5592 5591 5590 5589 5588 5587 5586 5584 5583 5582 5582 5580 5579 5578 5577 5575 5574 5573 5572 5571 5570 5569 5568 5567 5566 5565 5563 5562 5561 5560 5558 5557 5555 5554 5553 5552 5551 5550 5549 5548 5546 5545 5543 5542 5540 5539 5537 5536 5534 5533 5532 5531 5530 5529 5528 5527 5526 5525 5524 5523 5522 5521 5520 5520 5519 5518
5611 5609 5609 5608 5606 5605 5604 5603 5602 5601 5600 5599 5598 5597 5595 5594 5593 5592 5591 5590 5589 5588 5587 5585 5584 5583 5582 5581 5580 5579 5578 5576 5575 5574 5573 5572 5570 5569 5568 5567 5566 5565 5564 5562 5561 5560 5559 5557 5556 5555 5554 5552 5550 5549 5548 5547 5546 5544 5543 5542 5541 5540 5538 5537 5535 5534 5532 5531 5529 5528 5527 5525 5524 5523 5522 5521 5520 5519 5518 5517 5517 5516 5515 5514 5514 5513
5608 5606 5605 5604 5603 5602 5601 5600 5599 5598 5597 5595 5594 5593 5592 5591 5590 5589 5588 5587 5586 5584 5583 5582 5581 5580 5579 5577 5576 5575 5574 5573 5572 5571 5569 5568 5567 5566 5564 5563 5562 5561 5560 5559 5557 5556 5554 5553 5551 5550 5549 5548 5546 5544 5543 5542 5541 5539 5538 5537 5536 5534 5533 5532 5531 5529 5528 5526 5524 5523 5522 5520 5519 5518 5517 5516 5515 5514 5513 5512 5511 5510 5510 5509 5508 5507
5604 5603 5602 5601 5600 5599 5598 5597 5596 5595 5594 5592 5591 5590 5589 5588 5587 5585 5584 5583 5582 5581 5580 5579 5578 5576 5575 5574 5573 5572 5570 5569 5568 5567 5566 5564 5563 5562 5560 5559 5558 5557 5556 5554 5553 5551 5550 5549 5547 5545 5544 5542 5541 5540 5538 5537 5535 5534 5533 5532 5530 5529 5528 5527 5525 5524 5523 5521 5520 5518 5517 5515 5514 5513 5512 5510 5509 5509 5508 5507 5506 5505 5504 5503 5503 5502
5601 5600 5599 5598 5597 5596 5595 5594 5593 5591 5590 5589 5588 5587 5585 5584 5583 5582 5581 5580 5579 5578 5576 5575 5574 5573 5572 5570 5569 5568 5567 5565 5564 5563 5562 5561 5559 5558 5557 5555 5554 5552 5551 5550 5548 5547 5545 5544 5542 5541 5539 5537 5536 5534 5533 5532 5531 5529 5528 5526 5525 5524 5523 5521 5520 5519 5518 5516 5515 5513 5512 5511 5509 5508 5507 5506 5505 5504 5503 5502 5501 5500 5499 5498 5497 5496
5598 5597 5596 5595 5594 5593 5592 5590 5589 5588 5587 5586 5584 5584 5582 5581 5580 5579 5578 5577 5575 5574 5573 5572 5571 5569 5568 5567 5566 5564 5563 5562 5560 5559 5558 5557 5555 5554 5553 5551 5549 5548 5546 5545 5544 5542 5541 5539 5538 5536 5535 5533 5531 5529 5528 5527 5526 5524 5523 5521 5520 5518 5517 5516 5514 5513 5512 5511 5510 5509 5507 5506 5505 5504 5503 5502 5500 5499 5498 5497 5496 5494 5494 5492 5491 5490
5595 5594 5593 5592 5591 5590 5589 5587 5586 5585 5584 5583 5581 5580 5579 5578 5577 5575 5574 5573 5572 5571 5570 5569 5567 5566 5564 5563 5562 5561 5559 5558 5556 5555 5554 5552 5551 5550 5548 5547 5545 5544 5542 5540 5539 5538 5536 5535 5533 5531 5530 5529 5527 5524 5523 5522 5520 5519 5518 5516 5514 5513 5511 5510 5509 5508 5506 5505 5504 5504 5502 5501 5500 5499 5499 5497 5496 5495 5494 5492 5491 5489 5488 5487 5486 5485
5592 5591 5590 5589 5588 5586 5585 5584 5583 5582 5581 5579 5578 5577 5576 5575 5574 5572 5571 5570 5569 5567 5566 5565 5564 5562 5561 5559 5558 5557 5556 5554 5552 5551 5549 5548 5547 5545 5544 5542 5541 5539 5538 5536 5534 5533 5532 5530 5529 5527 5525 5524 5522 5520 5518 5516 5515 5514 5513 5511 5509 5508 5506 5504 5503 5502 5501 5500 5499 5499 5498 5497 5496 5495 5494 5493 5492 5491 5489 5488 5486 5485 5484 5482 5481 5480
5589 5588 5587 5586 5584 5583 5582 5581 5580 5579 5578 5576 5575 5574 5573 5572 5570 5569 5568 5566 5565 5564 5563 5561 5560 5559 5557 5556 5554 5553 5552 5550 5549 5547 5545 5544 5542 5541 5539 5538 5536 5534 5533 5531 5529 5528 5527 5525 5524 5522 5520 5519 5517 5515 5513 5511 5510 5508 5507 5506 5504 5503 5501 5499 5498 5497 5496 5495 5494 5493 5493 5492 5491 5490 5490 5489 5488 5486 5485 5483 5482 5480 5479 5478 5476 5475
5586 5585 5584 5583 5581 5580 5579 5578 5577 5575 5574 5573 5572 5571 5569 5568 5567 5565 5564 5563 5562 5560 5559 5558 5556 5555 5554 5552 5551 5549 5547 5546 5544 5543 5541 5539 5538 5536 5535 5533 5531 5530 5529 5527 5525 5524 5522 5520 5519 5517 5515 5514 5512 5510 5508 5506 5505 5503 5502 5500 5499 5498 5496 5494 5493 5492 5491 5490 5489 5488 5488 5487 5486 5486 5485 5484 5483 5482 5480 5479 5477 5476 5474 5473 5472 5470
5583 5582 5580 5579 5578 5577 5576 5575 5574 5572 5571 5570 5569 5567 5566 5564 5563 5562 5560 5559 5558 5557 5555 5554 5553 5551 5549 5548 5547 5545 5544 5542 5540 5539 5537 5535 5534 5532 5531 5529 5527 5525 5524 5522 5521 5519 5517 5515 5514 5512 5510 5509 5507 5505 5503 5501 5500 5498 5497 5495 5494 5492 5491 5489 5488 5487 5486 5485 5484 5484 5483 5482 5482 5481 5480 5479 5478 5477 5475 5474 5473 5471 5470 5469 5467 5466
5579 5579 5578 5576 5575 5574 5573 5572 5570 5569 5568 5566 5565 5564 5562 5561 5559 5558 5557 5555 5554 5553 5551 5550 5549 5547 5545 5544 5543 5542 5540 5538 5536 5535 5533 5531 5530 5528 5527 5525 5523 5521 5519 5518 5516 5514 5513 5511 5509 5507 5505 5503 5502 5500 5499 5497 5495 5493 5492 5490 5489 5487 5486 5484 5484 5483 5482 5481 5480 5479 5479 5478 5477 5476 5475 5474 5473 5472 5471 5469 5468 5467 5465 5464 5463 5462
5577 5575 5574 5573 5572 5571 5570 5568 5567 5566 5564 5563 5562 5560 5559 5557 5556 5554 5553 5552 5550 5549 5548 5546 5545 5544 5542 5540 5539 5538 5536 5534 5533 5531 5529 5527 5526 5524 5522 5520 5519 5517 5515 5513 5511 5509 5508 5506 5504 5502 5500 5498 5496 5494 5493 5492 5490 5489 5487 5485 5484 5483 5481 5480 5479 5478 5477 5476 5475 5475 5474 5473 5473 5472 5471 5470 5469 5467 5466 5464 5463 5462 5460 5459 5458 5457
5573 5572 5571 5570 5569 5568 5566 5565 5564 5563 5561 5559 5558 5557 5555 5554 5552 5551 5549 5548 5547 5545 5544 5543 5541 5540 5538 5537 5535 5534 5532 5530 5529 5527 5525 5524 5522 5520 5518 5516 5514 5512 5511 5509 5507 5505 5503 5501 5499 5497 5495 5493 5491 5489 5488 5487 5485 5484 5482 5481 5479 5478 5477 5476 5474 5474 5473 5472 5471 5470 5469 5469 5468 5467 5466 5465 5464 5463 5461 5459 5458 5457 5456 5454 5454 5453
5570 5569 5568 5566 5565 5564 5563 5562 5560 5559 5558 5556 5554 5553 5551 5550 5549 5547 5546 5544 5543 5541 5540 5539 5537 5535 5534 5532 5531 5530 5528 5526 5525 5523 5521 5519 5517 5515 5513 5511 5509 5508 5506 5504 5502 5500 5498 5496 5494 5492 5489 5488 5486 5485 5483 5482 5480 5479 5477 5476 5475 5474 5473 5472 5470 5469 5469 5468 5467 5466 5465 5464 5463 5463 5462 5461 5460 5459 5457 5455 5454 5452 5451 5450 5449 5448
5567 5565 5564 5563 5562 5560 5559 5558 5557 5555 5554 5552 5551 5549 5548 5546 5545 5544 5542 5540 5539 5538 5536 5535 5533 5531 5529 5528 5527 5525 5524 5522 5520 5519 5517 5515 5513 5511 5509 5507 5505 5503 5501 5499 5498 5496 5494 5491 5489 5487 5485 5483 5481 5480 5479 5477 5476 5474 5473 5472 5470 5469 5469 5468 5467 5465 5464 5464 5463 5462 5461 5459 5459 5458 5457 5456 5455 5454 5453 5451 5449 5448 5446 5445 5445 5444
5563 5562 5561 5559 5558 5557 5555 5554 5553 5551 5550 5549 5547 5546 5544 5543 5541 5540 5538 5537 5535 5534 5532 5531 5529 5527 5525 5524 5523 5521 5519 5518 5516 5514 5512 5510 5508 5506 5504 5502 5500 5499 5497 5494 5493 5491 5490 5488 5485 5482 5480 5478 5477 5476 5474 5472 5471 5470 5469 5467 5466 5465 5464 5463 5463 5462 5461 5460 5459 5457 5456 5455 5454 5453 5453 5452 5451 5450 5449 5447 5446 5444 5442 5441 5440 5440